Home > Weather > Liepāja > Past weeks

Flag for Latvia Weather for the Past 2 Weeks in Liepāja, Latvia

Now
45 °F

Overcast.


Feels Like: 42 °F
Forecast: 41 / 54 °F
Wind: 5 mph from Northeast

Location: Palanga Intl.

Current Time: May 1, 2016 at 5:52:56 AM

Latest Report: May 1, 2016 at 5:20 AM


Visibility: N/A

Pressure: 30.27 "Hg

Humidity: 81%

Dew Point: 39 °F

Location of LiepājaLocation

Historic Weather in Liepāja — Graph

°F

Liepāja Temperature Yesterday

Maximum temperature yesterday: 55 °F (at 12:20 PM)
Minimum temperature yesterday: 28 °F (at 5:20 AM)
Average temperature yesterday: 45 °F

High & Low Weather Summary for the Past Weeks

 TemperatureHumidityPressure
High61 °F (Apr 16, 6:20 PM)100% (Apr 17, 1:50 AM)30.30 "Hg (Apr 17, 1:50 AM)
Low27 °F (Apr 25, 3:50 AM)43% (Apr 27, 4:50 PM)29.59 "Hg (Apr 16, 10:20 PM)
Average43 °F81%29.86 "Hg
* Reported Apr 16 4:20 AM — May 1 4:50 AM, Liepāja, Weather by CustomWeather, © 2016

Note: Actual official high and low records may vary slightly from our data, if they occured in-between our weather recording intervals... More about our weather records

Advertising

Liepāja Weather History for the Previous 24 Hours

Scroll right to see more
 ConditionsComfort  
Time TempWeatherWind HumidityBarometerVisibility
4:50 AM
Sun, May 1
43 °FOvercast.3 mph87%30.27 "HgN/A
4:20 AM43 °FPassing clouds.3 mph87%30.27 "HgN/A
3:50 AM45 °FOvercast.2 mph87%30.27 "HgN/A
3:20 AM45 °FOvercast.1 mph87%30.27 "HgN/A
2:50 AM45 °FOvercast.1 mph87%30.27 "HgN/A
2:20 AM45 °FOvercast.1 mph87%30.27 "HgN/A
1:50 AM46 °FOvercast.1 mph87%30.27 "HgN/A
1:20 AM46 °FOvercast.1 mph82%30.27 "HgN/A
12:50 AM46 °FOvercast.2 mph87%30.27 "HgN/A
11:50 PM
Sat, Apr 30
48 °FOvercast.1 mph71%30.24 "HgN/A
11:20 PM48 °FPassing clouds.6 mph76%30.24 "HgN/A
11:02 PM52 °FPartly sunny.9 mph62%30.24 "HgN/A
10:20 PM48 °FPartly sunny.2 mph82%30.24 "HgN/A
9:50 PM50 °FPartly sunny.3 mph71%30.24 "HgN/A
9:20 PM52 °FPartly sunny.6 mph77%30.24 "HgN/A
8:50 PM54 °FPartly sunny.2 mph72%30.24 "HgN/A
8:20 PM55 °FOvercast.3 mph67%30.24 "HgN/A
7:50 PM54 °FPartly sunny.2 mph72%30.24 "HgN/A
7:20 PM52 °FPartly sunny.1 mph77%30.24 "HgN/A
7:03 PM52 °FPartly sunny.2 mph77%30.24 "HgN/A
6:50 PM54 °FPartly sunny.5 mph72%30.24 "HgN/A
6:20 PM55 °FPartly sunny.8 mph63%30.24 "HgN/A
5:50 PM54 °FPartly sunny.8 mph67%30.24 "HgN/A
5:20 PM50 °FPartly sunny.9 mph71%30.24 "HgN/A
4:50 PM52 °FPassing clouds.9 mph67%30.24 "HgN/A
4:20 PM52 °FPassing clouds.7 mph67%30.24 "HgN/A
3:50 PM52 °FPassing clouds.8 mph67%30.27 "HgN/A
3:20 PM52 °FPassing clouds.6 mph67%30.27 "HgN/A
2:50 PM52 °FPartly sunny.7 mph72%30.27 "HgN/A
2:20 PM50 °FPartly sunny.6 mph76%30.27 "HgN/A
1:50 PM52 °FPartly sunny.6 mph72%30.27 "HgN/A
1:20 PM54 °FPartly sunny.6 mph63%30.27 "HgN/A
12:50 PM55 °FPartly sunny.5 mph67%30.27 "HgN/A
12:20 PM55 °FPartly sunny.8 mph55%30.30 "HgN/A
11:20 AM54 °FPassing clouds.9 mph54%30.30 "HgN/A
10:50 AM52 °FPassing clouds.7 mph62%30.30 "HgN/A
10:20 AM52 °FPassing clouds.6 mph67%30.30 "HgN/A
9:50 AM48 °FPassing clouds.5 mph71%30.30 "HgN/A
9:20 AM46 °FPassing clouds.6 mph82%30.30 "HgN/A
8:50 AM45 °FPassing clouds.5 mph87%30.30 "HgN/A
8:20 AM41 °FSunny.5 mph93%30.30 "Hg10 mi
7:50 AM39 °FClear.3 mph100%30.30 "Hg4 mi
7:20 AM36 °FClear.5 mph100%30.30 "Hg4 mi
6:50 AM32 °FIce fog.2 mph100%30.30 "Hg3 mi
6:20 AM30 °FIce fog.2 mph93%30.30 "Hg3 mi
5:20 AM28 °FClear.3 mph100%30.30 "Hg4 mi
Weather by CustomWeather, © 2016

See weather overviewHow to use our weather pages